| time (UTC) | temp C | wind direction | speed KPH | gust KPH | rain 1hr cm | rain 24hr cm | rain mn cm | humidity % | barometer mb |
| 20260505062700 | 11 | 23 | 9.7 | 19.3 | 0.00 | 0.00 | 0.00 | 80 | 1011.2 |
| 20260505061638 | 11 | 23 | 9.7 | 19.3 | 0.00 | 0.00 | 0.00 | 81 | 1011.1 |
| 20260505060631 | 11 | 45 | 6.4 | 11.3 | 0.00 | 0.00 | 0.00 | 82 | 1011.1 |
| 20260505055631 | 11 | 0 | 11.3 | 19.3 | 0.00 | 0.00 | 0.00 | 83 | 1011.1 |
| 20260505054631 | 11 | 0 | 9.7 | 16.1 | 0.00 | 0.00 | 0.00 | 85 | 1011.1 |
| 20260505053620 | 11 | 45 | 1.6 | 4.8 | 0.00 | 0.00 | 0.00 | 85 | 1011.1 |
| 20260505052630 | 11 | 45 | 6.4 | 11.3 | 0.00 | 0.00 | 0.00 | 85 | 1011.1 |
| 20260505051631 | 11 | 0 | 6.4 | 9.7 | 0.00 | 0.00 | 0.00 | 85 | 1011.3 |
| 20260505050652 | 11 | 45 | 4.8 | 11.3 | 0.00 | 0.00 | 0.00 | 85 | 1011.5 |
| 20260505041631 | 11 | 0 | 11.3 | 16.1 | 0.00 | 0.00 | 0.00 | 86 | 1011.5 |
| 20260505040650 | 11 | 23 | 8.0 | 14.5 | 0.00 | 0.00 | 0.00 | 86 | 1011.5 |
| 20260505035620 | 11 | 23 | 3.2 | 6.4 | 0.00 | 0.00 | 0.00 | 86 | 1011.7 |
| 20260505034620 | 11 | 23 | 4.8 | 11.3 | 0.00 | 0.00 | 0.00 | 86 | 1011.7 |
| 20260505033620 | 11 | 45 | 3.2 | 4.8 | 0.00 | 0.00 | 0.00 | 86 | 1011.9 |
| 20260505032630 | 11 | 23 | 3.2 | 4.8 | 0.00 | 0.00 | 0.00 | 86 | 1011.8 |
| 20260505031630 | 11 | 113 | 3.2 | 6.4 | 0.00 | 0.00 | 0.00 | 85 | 1011.9 |
| 20260505030620 | 11 | 23 | 4.8 | 8.0 | 0.00 | 0.00 | 0.00 | 86 | 1011.9 |
| 20260505025619 | 11 | 0 | 6.4 | 12.9 | 0.00 | 0.00 | 0.00 | 86 | 1012.0 |
| 20260505024619 | 11 | 0 | 8.0 | 16.1 | 0.00 | 0.00 | 0.00 | 86 | 1012.1 |
| 20260505023619 | 11 | 23 | 6.4 | 11.3 | 0.00 | 0.00 | 0.00 | 86 | 1012.1 |
| 20260505022650 | 11 | 0 | 8.0 | 17.7 | 0.00 | 0.00 | 0.00 | 87 | 1012.0 |
| 20260505021619 | 11 | 45 | 8.0 | 14.5 | 0.00 | 0.00 | 0.00 | 87 | 1011.9 |
| 20260505020642 | 11 | 23 | 12.9 | 19.3 | 0.00 | 0.00 | 0.00 | 87 | 1012.0 |
| 20260505015640 | 11 | 23 | 4.8 | 11.3 | 0.00 | 0.00 | 0.00 | 87 | 1011.8 |
| 20260505014620 | 11 | 23 | 3.2 | 4.8 | 0.00 | 0.00 | 0.00 | 87 | 1011.8 |
| 20260505013619 | 11 | 0 | 6.4 | 16.1 | 0.00 | 0.00 | 0.00 | 87 | 1012.0 |
| 20260505012619 | 11 | 0 | 4.8 | 9.7 | 0.00 | 0.00 | 0.00 | 87 | 1012.0 |
| 20260505011630 | 11 | 45 | 4.8 | 8.0 | 0.00 | 0.00 | 0.00 | 87 | 1011.8 |
| 20260505010630 | 11 | 0 | 4.8 | 8.0 | 0.00 | 0.00 | 0.00 | 86 | 1011.8 |
| 20260505005639 | 11 | 0 | 6.4 | 9.7 | 0.00 | 0.00 | 0.00 | 86 | 1012.0 |
| 20260505004619 | 11 | 45 | 4.8 | 8.0 | 0.00 | 0.00 | 0.00 | 86 | 1012.0 |
| 20260505003619 | 11 | 45 | 4.8 | 9.7 | 0.00 | 0.00 | 0.00 | 86 | 1012.2 |
| 20260505002630 | 11 | 0 | 1.6 | 4.8 | 0.00 | 0.00 | 0.00 | 86 | 1012.4 |
| 20260505001650 | 11 | 0 | 6.4 | 11.3 | 0.00 | 0.00 | 0.00 | 86 | 1012.6 |
| 20260505000630 | 11 | 23 | 6.4 | 11.3 | 0.00 | 0.00 | 0.00 | 86 | 1012.5 |
| 20260504235620 | 11 | 0 | 6.4 | 9.7 | 0.00 | 0.00 | 0.00 | 86 | 1012.7 |
| 20260504234631 | 11 | 23 | 9.7 | 14.5 | 0.00 | 0.00 | 0.00 | 86 | 1012.8 |
| 20260504233619 | 11 | 338 | 6.4 | 14.5 | 0.00 | 0.00 | 0.00 | 87 | 1012.8 |
| 20260504232639 | 11 | 90 | 3.2 | 6.4 | 0.00 | 0.00 | 0.00 | 86 | 1012.9 |
| 20260504231630 | 11 | 23 | 8.0 | 14.5 | 0.00 | 0.00 | 0.00 | 86 | 1013.0 |
| 20260504230710 | 11 | 23 | 8.0 | 11.3 | 0.00 | 0.00 | 0.00 | 86 | 1013.0 |
| 20260504225701 | 11 | 45 | 6.4 | 9.7 | 0.00 | 0.00 | 0.00 | 86 | 1013.0 |
| 20260504224630 | 11 | 23 | 12.9 | 17.7 | 0.00 | 0.00 | 0.00 | 86 | 1012.9 |
| 20260504223620 | 11 | 45 | 6.4 | 11.3 | 0.00 | 0.00 | 0.00 | 87 | 1013.1 |
| 20260504222640 | 12 | 23 | 16.1 | 20.9 | 0.00 | 0.00 | 0.00 | 87 | 1013.0 |
| 20260504221620 | 12 | 23 | 6.4 | 11.3 | 0.00 | 0.00 | 0.00 | 87 | 1013.0 |
| 20260504220620 | 12 | 0 | 8.0 | 12.9 | 0.00 | 0.00 | 0.00 | 87 | 1013.1 |
| 20260504215620 | 12 | 23 | 8.0 | 12.9 | 0.00 | 0.00 | 0.00 | 87 | 1013.1 |
| 20260504214650 | 12 | 23 | 9.7 | 17.7 | 0.00 | 0.00 | 0.00 | 87 | 1013.2 |
| 20260504213640 | 12 | 23 | 9.7 | 16.1 | 0.00 | 0.00 | 0.00 | 87 | 1013.3 |
| 20260504212619 | 12 | 68 | 8.0 | 14.5 | 0.00 | 0.00 | 0.00 | 87 | 1013.5 |
| 20260504211640 | 12 | 338 | 6.4 | 14.5 | 0.00 | 0.00 | 0.00 | 87 | 1013.5 |
| 20260504210702 | 12 | 23 | 9.7 | 17.7 | 0.00 | 0.00 | 0.00 | 87 | 1013.6 |
| 20260504205630 | 12 | 45 | 4.8 | 6.4 | 0.00 | 0.00 | 0.00 | 88 | 1013.6 |
| 20260504204721 | 12 | 68 | 3.2 | 6.4 | 0.00 | 0.00 | 0.00 | 87 | 1013.7 |
| 20260504203652 | 12 | 0 | 6.4 | 11.3 | 0.00 | 0.00 | 0.00 | 88 | 1013.7 |
| 20260504202711 | 12 | 23 | 4.8 | 12.9 | 0.00 | 0.00 | 0.00 | 88 | 1013.6 |
| 20260504201619 | 12 | 45 | 4.8 | 9.7 | 0.00 | 0.00 | 0.00 | 88 | 1013.5 |
| 20260504200619 | 12 | 23 | 6.4 | 12.9 | 0.00 | 0.00 | 0.00 | 88 | 1013.4 |
| 20260504195619 | 12 | 23 | 9.7 | 19.3 | 0.00 | 0.00 | 0.00 | 88 | 1013.4 |
| 20260504194619 | 12 | 45 | 6.4 | 12.9 | 0.00 | 0.00 | 0.00 | 88 | 1013.3 |
| 20260504193620 | 12 | 0 | 6.4 | 16.1 | 0.00 | 0.00 | 0.00 | 88 | 1013.1 |
| 20260504192650 | 12 | 0 | 6.4 | 12.9 | 0.00 | 0.00 | 0.00 | 88 | 1012.9 |
| 20260504191631 | 12 | 45 | 6.4 | 14.5 | 0.00 | 0.00 | 0.00 | 88 | 1012.8 |
| 20260504190630 | 12 | 0 | 9.7 | 16.1 | 0.00 | 0.00 | 0.00 | 88 | 1012.7 |
| 20260504185619 | 12 | 23 | 8.0 | 16.1 | 0.00 | 0.00 | 0.00 | 87 | 1012.5 |
| 20260504184826 | 12 | 23 | 4.8 | 14.5 | 0.00 | 0.00 | 0.00 | 88 | 1012.5 |
| 20260504183830 | 12 | 0 | 9.7 | 14.5 | 0.00 | 0.00 | 0.00 | 88 | 1012.6 |
| 20260504182819 | 12 | 0 | 9.7 | 16.1 | 0.00 | 0.00 | 0.00 | 87 | 1012.4 |
| 20260504181819 | 12 | 23 | 8.0 | 16.1 | 0.00 | 0.00 | 0.00 | 87 | 1012.5 |
| 20260504180841 | 12 | 23 | 11.3 | 16.1 | 0.00 | 0.00 | 0.00 | 87 | 1012.5 |
| 20260504175819 | 12 | 0 | 8.0 | 16.1 | 0.00 | 0.00 | 0.00 | 87 | 1012.4 |
| 20260504174819 | 12 | 0 | 9.7 | 20.9 | 0.00 | 0.00 | 0.00 | 87 | 1012.6 |
| 20260504173819 | 12 | 23 | 9.7 | 14.5 | 0.00 | 0.00 | 0.00 | 87 | 1012.6 |
| 20260504172819 | 12 | 23 | 11.3 | 16.1 | 0.00 | 0.00 | 0.00 | 87 | 1012.5 |
| 20260504171819 | 12 | 23 | 12.9 | 22.5 | 0.00 | 0.00 | 0.00 | 87 | 1012.5 |
| 20260504170819 | 12 | 45 | 11.3 | 17.7 | 0.00 | 0.00 | 0.00 | 87 | 1012.4 |
| 20260504150819 | 16 | 0 | 11.3 | 20.9 | 0.00 | 0.00 | 0.00 | 80 | 1012.1 |
| 20260504140818 | 17 | 23 | 6.4 | 11.3 | 0.00 | 0.05 | 0.00 | 77 | 1012.5 |
| 20260504110640 | 16 | 23 | 1.6 | 3.2 | 0.00 | 0.41 | 0.00 | 82 | 1013.0 |
| 20260504081818 | 15 | 0.0 | 3.2 | 0.00 | 0.41 | 0.00 | 86 | 1012.7 | |
| 20260504080850 | 15 | 0.0 | 3.2 | 0.00 | 0.41 | 0.00 | 85 | 1012.6 |